White Mountain, AK

8:50 PM AKDT on April 22, 2018 (GMT -0800)
White Mountain

Weather History for PAWM - January, 2013

Change the Weather History Date:

Saturday, January 5, 2013

  Actual Average (PAOM) Record (PAOM)
Temperature  
Mean Temperature 28 °F -  
Max Temperature 32 °F 16 °F 39 °F (1953)
Min Temperature 24 °F 0 °F -40 °F (1917)
Degree Days  
Heating Degree Days 37    
Moisture  
Dew Point 20 °F    
Average Humidity 74    
Maximum Humidity 88    
Minimum Humidity 56    
Precipitation  
Precipitation 0.00 in - - ()
Sea Level Pressure  
Sea Level Pressure 29.37 in    
Wind  
Wind Speed 12 mph (NE)    
Max Wind Speed 16 mph    
Max Gust Speed 24 mph    
Visibility 6 miles    
Events Snow    
Averages and records for this station are not official NWS values.
T = Trace of Precipitation, MM = Missing Value Source: NWS Daily Summary

Daily Weather History Graph

Daily Weather History Graph

Search for Another Location

Airport or City:

Astronomy

Jan. 05, 2013 Rise Set
Actual Time 11:47 AM AKST 4:11 PM AKST
Civil Twilight 10:30 AM AKST 5:28 PM AKST
Nautical Twilight 9:21 AM AKST 6:37 PM AKST
Astronomical Twilight 8:20 AM AKST 7:38 PM AKST
Moon 3:36 AM AKST (1/5) 12:31 PM AKST (1/5)
Length of Visible Light 6h 58m
Length of Day
4h 23m
Last Quarter, 42% of the Moon is Illuminated
Jan 5
Last Quarter
Jan 11
New
Jan 18
First Quarter
Jan 26
Full
Feb 3
Last Quarter

Hourly Weather History & Observations

Time (AKST) Temp. Windchill Dew Point Humidity Pressure Visibility Wind Dir Wind Speed Gust Speed Precip Events Conditions
12:58 AM 28.9 °F 17.3 °F 23.0 °F 78% 29.59 in 9.0 mi East 16.1 mph - N/A   Mostly Cloudy
1:58 AM 28.9 °F 18.2 °F 23.0 °F 78% 29.57 in 10.0 mi East 13.8 mph - N/A   Partly Cloudy
3:58 AM 28.0 °F 16.5 °F 21.0 °F 75% 29.52 in 10.0 mi East 15.0 mph - N/A   Clear
4:58 AM 30.0 °F 18.7 °F 21.9 °F 72% 29.50 in 10.0 mi East 16.1 mph - N/A   Overcast
5:58 AM 30.0 °F 18.7 °F 21.9 °F 72% 29.48 in 10.0 mi East 16.1 mph 24.2 mph N/A   Overcast
6:58 AM 28.9 °F 17.7 °F 19.9 °F 69% 29.47 in 9.0 mi East 15.0 mph - N/A   Clear
8:58 AM 28.9 °F 18.2 °F 19.0 °F 67% 29.45 in 9.0 mi East 13.8 mph 21.9 mph N/A   Overcast
9:58 AM 28.9 °F 17.7 °F 19.0 °F 67% 29.46 in 9.0 mi East 15.0 mph - N/A   Overcast
10:58 AM 28.0 °F 18.1 °F 19.0 °F 69% 29.44 in 9.0 mi East 11.5 mph - N/A   Overcast
11:58 AM 28.9 °F 18.6 °F 18.0 °F 64% 29.43 in 8.0 mi ENE 12.7 mph - N/A   Overcast
12:58 PM 32.0 °F 24.2 °F 19.0 °F 59% 29.41 in 8.0 mi ENE 9.2 mph 18.4 mph N/A   Overcast
1:58 PM 32.0 °F 24.8 °F 18.0 °F 56% 29.39 in 8.0 mi NE 8.1 mph - N/A   Partly Cloudy
2:58 PM 30.0 °F 22.4 °F 19.0 °F 64% 29.37 in 8.0 mi NE 8.1 mph - N/A   Overcast
3:58 PM 28.0 °F 18.1 °F 19.0 °F 69% 29.34 in 8.0 mi ENE 11.5 mph 17.3 mph N/A   Overcast
4:58 PM 27.0 °F 21.6 °F 18.0 °F 69% 29.33 in 8.0 mi Variable 4.6 mph - N/A   Overcast
5:58 PM 25.0 °F 19.3 °F 17.1 °F 72% 29.34 in 9.0 mi SW 4.6 mph - N/A   Mostly Cloudy
6:58 PM 24.1 °F 17.0 °F 17.1 °F 75% 29.34 in 9.0 mi NE 5.8 mph - N/A   Overcast
7:58 PM 25.0 °F 19.3 °F 17.1 °F 72% 29.33 in 9.0 mi NE 4.6 mph - N/A   Overcast
9:08 PM 24.8 °F 16.9 °F 17.6 °F 74% 29.28 in 3.0 mi NNE 6.9 mph - 0.00 in Snow Light Snow
9:13 PM 24.8 °F 16.1 °F 17.6 °F 74% 29.28 in 2.5 mi North 8.1 mph - 0.00 in Snow Light Snow
9:17 PM 24.8 °F 16.9 °F 17.6 °F 74% 29.28 in 4.0 mi NNE 6.9 mph - 0.00 in Snow Light Snow
9:24 PM 24.8 °F 16.1 °F 19.4 °F 80% 29.28 in 7.0 mi ENE 8.1 mph - 0.00 in Snow Light Snow
10:17 PM 26.6 °F 20.0 °F 19.4 °F 74% 29.28 in 2.5 mi NNE 5.8 mph - 0.00 in Snow Light Snow
10:23 PM 26.6 °F 21.2 °F 19.4 °F 74% 29.28 in 2.0 mi North 4.6 mph - 0.00 in Snow Light Snow
10:40 PM 24.8 °F 16.9 °F 19.4 °F 80% 29.27 in 1.5 mi North 6.9 mph - 0.00 in Snow Light Snow
10:58 PM 25.0 °F 16.3 °F 21.9 °F 88% 29.31 in 1.8 mi North 8.1 mph - 0.00 in Snow Light Snow
11:05 PM 24.8 °F 16.1 °F 21.2 °F 86% 29.27 in 2.0 mi North 8.1 mph - 0.00 in Snow Light Snow
11:11 PM 24.8 °F 16.1 °F 21.2 °F 86% 29.27 in 2.5 mi North 8.1 mph - 0.00 in Snow Light Snow
11:15 PM 24.8 °F 16.1 °F 21.2 °F 86% 29.27 in 2.5 mi North 8.1 mph - 0.00 in Snow Light Snow
11:34 PM 24.8 °F 17.9 °F 21.2 °F 86% 29.27 in 2.0 mi North 5.8 mph - 0.00 in Snow Light Snow
11:58 PM 25.0 °F 17.1 °F 21.9 °F 88% 29.31 in 1.5 mi North 6.9 mph - 0.00 in Snow Light Snow